FW7122 Weather Reports


time (UTC)temp
C
wind
direction
speed
KPH
gust
KPH
rain 1hr
cm
rain 24hr
cm
rain mn
cm
humidity
%
barometer
mb
20260510153316 14 40 0.0 11.3 0.00 0.56 0.00 50 1017.4
20260510152848 14 38 8.0 11.3 0.00 0.56 0.00 52 1017.5
20260510152320 14 40 3.2 8.0 0.00 0.56 0.00 51 1017.6
20260510151816 14 41 1.6 9.7 0.00 0.56 0.00 54 1017.5
20260510151328 14 40 3.2 9.7 0.00 0.56 0.00 52 1017.5
20260510150821 14 46 1.6 8.0 0.00 0.56 0.00 53 1017.4
20260510150313 14 49 3.2 12.9 0.00 0.56 0.00 50 1017.3
20260510145825 14 46 1.6 17.7 0.00 0.56 0.00 51 1017.3
20260510145337 13 49 3.2 17.7 0.00 0.56 0.00 51 1017.3
20260510144828 13 50 3.2 14.5 0.00 0.56 0.00 51 1017.3
20260510144319 13 32 1.6 9.7 0.00 0.56 0.00 53 1017.2
20260510143830 13 52 0.0 16.1 0.00 0.56 0.00 54 1017.2
20260510143326 13 54 6.4 16.1 0.00 0.56 0.00 53 1017.2
20260510142818 13 32 1.6 14.5 0.00 0.56 0.00 54 1017.0
20260510142348 13 26 3.2 11.3 0.00 0.56 0.00 55 1017.0
20260510141819 13 33 3.2 11.3 0.00 0.56 0.00 55 1017.0
20260510141311 13 19 3.2 9.7 0.00 0.56 0.00 56 1017.1
20260510140824 13 19 3.2 9.7 0.00 0.56 0.00 56 1017.1
20260510140316 13 15 4.8 9.7 0.00 0.56 0.00 56 1017.2
20260510135810 12 5 1.6 14.5 0.00 0.56 0.00 58 1017.1
20260510135322 12 22 6.4 16.1 0.00 0.56 0.00 56 1017.1
20260510134818 12 52 6.4 16.1 0.00 0.56 0.00 58 1017.1
20260510134310 12 36 1.6 12.9 0.00 0.56 0.00 60 1017.0
20260510133823 12 36 0.0 12.9 0.00 0.56 0.00 59 1017.0
20260510133314 12 36 1.6 11.3 0.00 0.56 0.00 62 1017.0
20260510132826 12 44 1.6 11.3 0.00 0.56 0.00 62 1016.9
20260510132339 12 43 1.6 12.9 0.00 0.56 0.00 63 1016.8
20260510131809 11 38 4.8 16.1 0.00 0.56 0.00 62 1016.8
20260510131322 11 5 1.6 16.1 0.00 0.56 0.00 62 1016.6
20260510130817 11 59 4.8 14.5 0.00 0.56 0.00 64 1016.4
20260510130310 11 22 8.0 16.1 0.00 0.56 0.00 65 1016.4
20260510125823 11 51 3.2 16.1 0.00 0.56 0.00 65 1016.4
20260510125315 11 22 3.2 11.3 0.00 0.56 0.00 65 1016.3
20260510124828 11 5 0.0 17.7 0.00 0.56 0.00 65 1016.2
20260510124339 11 349 6.4 17.7 0.00 0.56 0.00 69 1015.9
20260510123809 10 40 6.4 17.7 0.00 0.56 0.00 72 1015.8
20260510123322 10 49 8.0 17.7 0.00 0.56 0.00 72 1015.9
20260510122814 10 64 4.8 9.7 0.00 0.56 0.00 76 1015.9
20260510122311 9 65 1.6 6.4 0.00 0.56 0.00 77 1015.9
20260510121825 9 65 1.6 6.4 0.00 0.56 0.00 77 1015.7
20260510121317 9 322 0.0 8.0 0.00 0.56 0.00 77 1015.6
20260510120809 9 70 3.2 8.0 0.00 0.56 0.00 78 1015.6
20260510120323 9 66 0.0 8.0 0.00 0.56 0.00 79 1015.6
20260510115835 8 15 0.0 4.8 0.00 0.56 0.00 79 1015.4
20260510115326 8 42 0.0 4.8 0.00 0.56 0.00 80 1015.5
20260510114819 8 42 0.0 8.0 0.00 0.56 0.00 80 1015.3
20260510114331 8 46 0.0 8.0 0.00 0.56 0.00 81 1015.2
20260510113827 8 338 0.0 6.4 0.00 0.56 0.00 82 1015.0
20260510113319 8 15 1.6 8.0 0.00 0.56 0.00 81 1014.8
20260510112811 8 14 0.0 4.8 0.00 0.56 0.00 82 1014.6
20260510112324 8 13 0.0 0.0 0.00 0.56 0.00 83 1014.6
20260510111817 8 13 0.0 1.6 0.00 0.56 0.00 83 1014.6
20260510111310 8 13 0.0 9.7 0.00 0.56 0.00 83 1014.5
20260510110821 8 13 0.0 9.7 0.00 0.56 0.00 83 1014.4
20260510110313 8 28 0.0 3.2 0.00 0.56 0.00 84 1014.1
20260510105845 8 28 0.0 3.2 0.00 0.56 0.00 84 1014.1
20260510105337 8 28 0.0 1.6 0.00 0.56 0.00 84 1014.1
20260510104828 8 28 0.0 4.8 0.00 0.56 0.00 85 1014.0
20260510104320 8 28 1.6 6.4 0.00 0.56 0.00 85 1013.7
20260510103812 8 15 0.0 6.4 0.00 0.56 0.00 85 1013.4
20260510103325 8 297 1.6 6.4 0.00 0.56 0.00 86 1013.4
20260510102818 8 297 3.2 6.4 0.00 0.56 0.00 86 1013.2
20260510102310 8 311 0.0 0.0 0.00 0.56 0.00 87 1013.3
20260510101821 8 311 0.0 0.0 0.00 0.56 0.00 87 1013.2
20260510101313 8 311 0.0 0.0 0.00 0.56 0.00 87 1013.0
20260510100810 8 315 0.0 0.0 0.00 0.56 0.00 87 1013.0
20260510100323 8 315 0.0 0.0 0.00 0.56 0.00 87 1012.8
20260510095815 8 47 0.0 0.0 0.00 0.56 0.00 87 1012.8
20260510095327 8 47 0.0 0.0 0.00 0.56 0.00 87 1012.9
20260510094819 8 26 0.0 0.0 0.00 0.56 0.00 87 1012.8
20260510094311 8 26 0.0 0.0 0.00 0.56 0.00 87 1012.7
20260510093843 8 26 0.0 0.0 0.00 0.56 0.00 87 1012.7
20260510093315 8 26 0.0 0.0 0.00 0.56 0.00 87 1012.6
20260510092810 8 26 0.0 0.0 0.00 0.56 0.00 88 1012.4
20260510092322 8 26 0.0 0.0 0.00 0.56 0.00 88 1012.4
20260510091835 8 26 0.0 0.0 0.00 0.56 0.00 89 1012.4
20260510091326 8 26 0.0 0.0 0.00 0.56 0.00 89 1012.2
20260510090818 8 26 0.0 0.0 0.00 0.56 0.00 90 1012.2
20260510090310 8 26 0.0 0.0 0.00 0.56 0.00 90 1012.0
20260510085822 8 26 0.0 0.0 0.00 0.56 0.00 90 1012.0
20260510085314 8 26 0.0 0.0 0.00 0.56 0.00 90 1011.8
20260510084827 8 26 0.0 0.0 0.00 0.56 0.00 89 1011.9
20260510084323 8 26 0.0 0.0 0.00 0.56 0.00 89 1011.8
20260510083816 8 26 0.0 0.0 0.00 0.56 0.00 89 1011.6
20260510083349 8 26 0.0 0.0 0.00 0.56 0.00 88 1011.6
20260510082820 8 26 0.0 0.0 0.00 0.56 0.00 88 1011.5
20260510082313 8 26 0.0 0.0 0.00 0.56 0.00 88 1011.5
20260510081825 8 26 0.0 0.0 0.00 0.56 0.00 87 1011.6
20260510081338 8 26 0.0 0.0 0.00 0.56 0.00 87 1011.3
20260510080829 8 26 0.0 0.0 0.00 0.56 0.00 87 1011.3
20260510080321 8 26 0.0 0.0 0.00 0.56 0.00 87 1011.4
20260510075818 8 26 0.0 0.0 0.00 0.56 0.00 86 1011.3
20260510075311 8 26 0.0 0.0 0.00 0.56 0.00 85 1011.1
20260510074821 8 26 0.0 0.0 0.00 0.56 0.00 85 1010.9
20260510074313 8 26 0.0 0.0 0.00 0.56 0.00 85 1010.8
20260510073825 8 26 0.0 0.0 0.00 0.56 0.00 85 1010.7
20260510073317 8 26 0.0 0.0 0.00 0.56 0.00 84 1010.5
20260510072829 8 26 0.0 0.0 0.00 0.56 0.00 83 1010.5
20260510072321 8 26 0.0 0.0 0.00 0.56 0.00 82 1010.4
20260510071818 9 26 0.0 0.0 0.00 0.56 0.00 82 1010.3
20260510071310 9 26 0.0 0.0 0.00 0.56 0.00 81 1010.4
20260510070823 9 26 0.0 0.0 0.00 0.56 0.00 81 1010.3
20260510070317 9 26 0.0 0.0 0.00 0.56 0.00 80 1010.2
20260510065847 10 26 0.0 0.0 0.00 0.56 0.00 80 1010.2
20260510065318 10 26 0.0 0.0 0.00 0.56 0.00 79 1010.3
20260510064810 10 26 0.0 0.0 0.00 0.56 0.00 79 1010.3
20260510064321 10 26 0.0 0.0 0.00 0.56 0.00 79 1010.2
20260510063814 10 26 0.0 4.8 0.00 0.56 0.00 79 1010.2
20260510063311 10 26 0.0 9.7 0.00 0.56 0.00 78 1010.1
20260510062823 10 25 0.0 9.7 0.00 0.56 0.00 78 1010.1
20260510062316 10 39 1.6 6.4 0.00 0.56 0.00 79 1010.0
20260510061829 10 40 0.0 9.7 0.00 0.56 0.00 79 1010.1
20260510061341 11 44 3.2 14.5 0.00 0.56 0.00 78 1009.9
20260510060813 11 17 0.0 14.5 0.00 0.56 0.00 78 1009.8
20260510060325 11 355 1.6 14.5 0.00 0.56 0.00 78 1009.8
20260510055817 11 19 0.0 11.3 0.00 0.56 0.00 79 1009.7
20260510055313 11 15 3.2 19.3 0.00 0.56 0.00 79 1009.7
20260510054825 11 51 6.4 19.3 0.00 0.56 0.00 80 1009.6
20260510054317 12 350 4.8 16.1 0.00 0.56 0.00 83 1009.6
20260510053809 12 25 0.0 16.1 0.00 0.56 0.00 84 1009.4
20260510053323 12 93 6.4 16.1 0.00 0.56 0.00 84 1009.3
20260510052814 13 317 9.7 16.1 0.00 0.56 0.00 88 1009.1
20260510052326 13 292 1.6 16.1 0.00 0.56 0.00 89 1008.9
20260510051819 13 227 0.0 0.0 0.00 0.56 0.00 89 1008.8
20260510051316 13 227 0.0 0.0 0.00 0.56 0.00 88 1008.5
20260510050827 13 227 0.0 8.0 0.00 0.56 0.00 88 1008.4
20260510050340 13 227 1.6 8.0 0.00 0.56 0.00 88 1008.3
20260510045811 13 227 0.0 4.8 0.00 0.56 0.56 88 1008.2
20260510045322 13 227 0.0 6.4 0.00 0.56 0.56 88 1008.2
20260510044814 13 227 0.0 3.2 0.00 0.56 0.56 88 1008.0
20260510044326 13 227 0.0 9.7 0.00 0.56 0.56 88 1007.8
20260510043818 13 227 4.8 16.1 0.00 0.56 0.56 88 1007.6
20260510043310 13 215 6.4 20.9 0.00 0.56 0.56 88 1007.6
20260510042826 13 208 8.0 14.5 0.00 0.56 0.56 87 1007.7
20260510042338 13 217 1.6 11.3 0.00 0.66 0.56 87 1007.4
20260510041829 13 217 3.2 12.9 0.00 0.66 0.56 86 1007.2
20260510041321 14 218 3.2 12.9 0.00 0.66 0.56 86 1007.1
20260510040812 14 209 3.2 11.3 0.00 0.66 0.56 85 1006.9
20260510040325 14 209 4.8 11.3 0.00 0.66 0.56 85 1006.9
20260510035817 14 209 1.6 12.9 0.03 0.66 0.56 85 1006.9
20260510035329 14 209 6.4 14.5 0.03 0.66 0.56 84 1006.8
20260510034821 14 206 3.2 14.5 0.03 0.66 0.56 84 1006.8
20260510034338 14 206 4.8 14.5 0.03 0.66 0.56 84 1006.8
20260510033809 14 218 4.8 9.7 0.05 0.66 0.56 85 1006.7
20260510033320 14 223 1.6 9.7 0.05 0.66 0.56 85 1006.7
20260510032812 14 244 0.0 9.7 0.05 0.66 0.56 86 1006.7
20260510032325 14 232 1.6 11.3 0.05 0.69 0.56 86 1006.7
20260510031817 14 214 4.8 11.3 0.05 0.69 0.56 86 1006.7
20260510031329 14 205 3.2 16.1 0.05 0.69 0.56 86 1006.8
20260510030841 14 200 6.4 16.1 0.05 0.69 0.56 85 1006.8
20260510030312 14 181 1.6 14.5 0.08 0.69 0.56 85 1006.7
20260510025845 14 221 4.8 16.1 0.05 0.66 0.53 86 1006.9
20260510025319 14 211 1.6 16.1 0.05 0.66 0.53 86 1006.9
20260510024811 14 194 3.2 16.1 0.05 0.66 0.53 87 1007.0
20260510024325 13 209 8.0 16.1 0.05 0.66 0.53 87 1006.9
20260510023817 13 204 3.2 9.7 0.03 0.64 0.51 88 1006.7
20260510023328 13 267 0.0 6.4 0.05 0.64 0.51 88 1006.7
20260510022820 13 269 0.0 9.7 0.05 0.64 0.51 88 1006.6
20260510022332 13 269 0.0 16.1 0.05 0.64 0.51 89 1006.6
20260510021825 13 276 0.0 16.1 0.05 0.64 0.51 89 1006.6
20260510021316 13 224 4.8 22.5 0.05 0.64 0.51 90 1006.6
20260510020811 13 241 12.9 24.1 0.05 0.64 0.51 91 1006.8
20260510020324 13 195 12.9 24.1 0.05 0.61 0.48 91 1006.9
20260510015816 13 205 6.4 11.3 0.05 0.61 0.48 91 1007.0
20260510015328 13 210 0.0 0.0 0.05 0.61 0.48 91 1006.5
20260510014820 13 210 0.0 0.0 0.05 0.61 0.48 91 1006.3
20260510014312 13 210 0.0 0.0 0.08 0.61 0.48 91 1006.2
20260510013845 13 210 0.0 0.0 0.08 0.61 0.48 91 1006.0
20260510013315 13 210 0.0 6.4 0.05 0.58 0.46 91 1006.0
20260510012827 13 210 0.0 11.3 0.05 0.58 0.46 91 1006.1
20260510012319 13 242 0.0 0.0 0.05 0.58 0.46 91 1006.0
20260510011835 13 242 0.0 9.7 0.08 0.58 0.46 90 1006.0
20260510011326 13 242 0.0 9.7 0.08 0.58 0.46 90 1005.9
20260510010818 13 243 1.6 9.7 0.08 0.58 0.46 90 1005.9
20260510010310 13 250 0.0 9.7 0.08 0.56 0.43 90 1005.9
20260510005821 13 254 3.2 6.4 0.08 0.56 0.43 90 1005.8
20260510005314 13 254 0.0 4.8 0.08 0.56 0.43 90 1005.9
20260510004846 13 257 0.0 8.0 0.08 0.56 0.43 90 1005.9
20260510004317 13 258 0.0 11.3 0.08 0.53 0.41 90 1005.9
20260510003809 13 212 0.0 14.5 0.08 0.53 0.41 91 1005.8
20260510003342 13 238 4.8 14.5 0.10 0.53 0.41 91 1005.9
20260510002817 13 223 3.2 14.5 0.10 0.53 0.41 92 1005.8
20260510002350 13 206 1.6 14.5 0.10 0.58 0.41 92 1005.8
20260510001821 13 225 6.4 14.5 0.10 0.56 0.38 92 1005.9
20260510001333 13 249 0.0 11.3 0.10 0.56 0.38 92 1005.9
20260510000825 13 208 0.0 16.1 0.13 0.56 0.38 92 1005.8
20260510000318 13 183 6.4 16.1 0.10 0.53 0.36 92 1005.8
20260509235828 13 234 0.0 9.7 0.13 0.53 0.36 92 1005.8
20260509235320 13 234 3.2 9.7 0.15 0.53 0.36 92 1005.7
20260509234832 13 226 3.2 9.7 0.18 0.53 0.36 92 1005.7
20260509234323 13 227 1.6 9.7 0.18 0.51 0.33 92 1005.5
20260509233819 13 227 1.6 11.3 0.20 0.51 0.33 92 1005.6
20260509233310 13 227 3.2 12.9 0.20 0.48 0.30 92 1005.6
20260509232844 13 155 4.8 14.5 0.25 0.48 0.30 91 1005.5
20260509232315 13 226 6.4 14.5 0.28 0.66 0.30 91 1005.6
20260509231826 13 249 6.4 14.5 0.28 0.64 0.28 91 1005.5
20260509231318 14 254 3.2 20.9 0.28 0.64 0.28 90 1005.5
20260509230810 14 235 0.0 20.9 0.25 0.61 0.25 90 1005.2
20260509230322 14 270 1.6 19.3 0.25 0.61 0.25 89 1005.5
20260509225819 14 230 11.3 19.3 0.23 0.58 0.23 88 1005.8
20260509225311 14 229 8.0 22.5 0.20 0.56 0.20 87 1006.1
20260509224822 14 221 12.9 22.5 0.18 0.53 0.18 86 1005.7
20260509224315 15 270 4.8 19.3 0.15 0.51 0.15 84 1005.5
20260509223827 15 302 6.4 19.3 0.13 0.48 0.13 80 1005.4
20260509223339 16 198 4.8 30.6 0.10 0.46 0.10 75 1005.2
20260509222810 18 322 11.3 30.6 0.05 0.41 0.05 69 1005.1
20260509222321 20 257 12.9 32.2 0.03 0.46 0.03 65 1005.2
20260509221833 21 232 4.8 32.2 0.00 0.43 0.00 61 1003.9
20260509221325 21 271 8.0 29.0 0.00 0.43 0.00 58 1003.6
20260509220822 21 236 6.4 35.4 0.00 0.43 0.00 58 1003.2
20260509220314 21 219 14.5 27.4 0.00 0.43 0.00 57 1003.2
20260509215826 21 183 9.7 37.0 0.00 0.43 0.00 57 1003.2
20260509215318 21 225 20.9 37.0 0.00 0.43 0.00 56 1003.3
20260509214810 21 159 11.3 38.6 0.00 0.43 0.00 56 1003.2
20260509214322 21 262 22.5 38.6 0.00 0.43 0.00 55 1003.0
20260509213814 21 257 17.7 38.6 0.00 0.43 0.00 55 1003.0
20260509213326 21 192 17.7 38.6 0.00 0.43 0.00 55 1003.1
20260509212823 21 205 20.9 37.0 0.00 0.43 0.00 54 1003.0
20260509212316 21 229 16.1 40.2 0.00 0.43 0.00 53 1003.1
20260509211828 21 238 19.3 40.2 0.00 0.43 0.00 55 1003.0
20260509211319 21 207 14.5 37.0 0.00 0.43 0.00 55 1002.9
20260509210811 21 210 17.7 35.4 0.00 0.43 0.00 54 1003.1
20260509210344 21 222 17.7 38.6 0.00 0.43 0.00 55 1002.8
20260509205814 21 200 17.7 46.7 0.00 0.43 0.00 54 1003.1
20260509205327 21 177 25.7 38.6 0.00 0.43 0.00 54 1003.2
20260509204818 21 229 17.7 46.7 0.00 0.43 0.00 54 1003.5
20260509204334 21 140 9.7 46.7 0.00 0.43 0.00 54 1003.5
20260509203825 21 207 17.7 35.4 0.00 0.43 0.00 55 1003.7
20260509203317 21 229 19.3 41.8 0.00 0.43 0.00 55 1003.6
20260509202809 21 195 16.1 41.8 0.00 0.43 0.00 56 1003.7
20260509202322 21 228 14.5 29.0 0.00 0.46 0.00 57 1003.7
20260509201834 21 219 14.5 29.0 0.00 0.46 0.00 57 1003.9
20260509201325 21 197 12.9 43.5 0.00 0.46 0.00 57 1004.0
20260509200817 21 205 22.5 43.5 0.00 0.46 0.00 56 1004.1
20260509200309 21 187 12.9 41.8 0.00 0.46 0.00 57 1004.1
20260509195842 21 217 11.3 41.8 0.00 0.46 0.00 61 1004.2
20260509195316 21 217 14.5 41.8 0.00 0.46 0.00 59 1004.4
20260509194827 21 241 9.7 41.8 0.00 0.46 0.00 60 1004.3
20260509194319 21 207 22.5 38.6 0.00 0.46 0.00 59 1004.5
20260509193811 21 209 20.9 38.6 0.00 0.46 0.00 59 1004.5
20260509193324 21 226 14.5 38.6 0.00 0.46 0.00 60 1004.5
20260509192816 21 202 17.7 38.6 0.00 0.46 0.00 60 1004.7
20260509192347 20 199 17.7 33.8 0.00 0.46 0.00 59 1004.7
20260509191819 21 267 14.5 30.6 0.00 0.46 0.00 60 1004.7
20260509191315 21 233 14.5 30.6 0.00 0.46 0.00 60 1004.8
20260509190827 21 200 14.5 30.6 0.00 0.46 0.00 63 1004.8
20260509190339 20 206 16.1 35.4 0.00 0.46 0.00 63 1004.9
20260509185810 20 220 8.0 40.2 0.00 0.46 0.00 61 1005.0
20260509185323 20 219 11.3 38.6 0.00 0.46 0.00 62 1005.0
20260509184816 20 240 9.7 46.7 0.00 0.46 0.00 63 1005.2
20260509184328 20 215 17.7 46.7 0.00 0.46 0.00 61 1005.1
20260509183820 20 231 16.1 43.5 0.00 0.46 0.00 64 1005.2
20260509183312 20 241 24.1 43.5 0.00 0.46 0.00 64 1005.3
20260509182829 20 227 19.3 38.6 0.00 0.46 0.00 63 1005.4
20260509182321 20 161 16.1 32.2 0.00 0.46 0.00 63 1005.4
20260509181813 20 178 19.3 37.0 0.00 0.46 0.00 62 1005.4
20260509181344 20 214 19.3 43.5 0.00 0.46 0.00 63 1005.4
20260509180816 20 234 16.1 43.5 0.00 0.46 0.00 64 1005.3
20260509180327 20 204 17.7 32.2 0.00 0.46 0.00 64 1005.3
20260509175819 20 237 16.1 32.2 0.00 0.46 0.00 64 1005.2
20260509175312 19 200 20.9 32.2 0.00 0.46 0.00 64 1005.3
20260509174844 19 175 17.7 33.8 0.00 0.46 0.00 63 1005.4
20260509174319 19 134 11.3 33.8 0.00 0.46 0.00 65 1005.3
20260509173811 19 254 14.5 27.4 0.00 0.46 0.00 66 1005.4
20260509173344 18 173 11.3 37.0 0.00 0.46 0.00 67 1005.4
20260509172816 18 215 11.3 37.0 0.00 0.46 0.00 67 1005.5
20260509172327 18 202 11.3 29.0 0.00 0.46 0.00 66 1005.6
20260509171819 18 208 16.1 29.0 0.00 0.46 0.00 66 1005.6
20260509171311 18 213 9.7 29.0 0.00 0.46 0.00 66 1005.7
20260509170822 18 217 12.9 27.4 0.00 0.46 0.00 66 1005.7
20260509170314 18 236 17.7 27.4 0.00 0.46 0.00 68 1005.8
20260509165810 18 197 9.7 24.1 0.00 0.46 0.00 69 1005.7
20260509165323 18 175 3.2 33.8 0.00 0.46 0.00 69 1005.6
20260509164816 18 193 14.5 33.8 0.00 0.46 0.00 68 1005.6
20260509164327 18 249 11.3 29.0 0.00 0.46 0.00 68 1005.7
20260509163818 18 192 11.3 29.0 0.00 0.46 0.00 68 1005.8
20260509163310 18 204 16.1 24.1 0.00 0.46 0.00 68 1005.9
20260509162822 18 213 6.4 24.1 0.00 0.46 0.00 70 1005.8
20260509162314 17 198 9.7 24.1 0.00 0.46 0.00 71 1005.8
20260509161810 17 234 9.7 27.4 0.00 0.46 0.00 70 1005.7
20260509161322 17 237 4.8 27.4 0.00 0.46 0.00 71 1005.7
20260509160814 17 235 17.7 27.4 0.00 0.46 0.00 73 1005.8
20260509160346 17 211 9.7 22.5 0.00 0.46 0.00 71 1005.9
20260509155817 17 165 6.4 22.5 0.00 0.46 0.00 73 1006.1
20260509155310 16 213 11.3 19.3 0.00 0.46 0.00 73 1006.1
20260509154822 16 190 4.8 17.7 0.00 0.46 0.00 76 1006.2
20260509154314 16 159 4.8 17.7 0.00 0.46 0.00 77 1006.2
20260509153811 16 256 9.7 24.1 0.00 0.46 0.00 76 1006.3